Regional Weather Roundup
Issued by NWS

Home | Current Version | Previous Version | Text Only | Print | Product List | Glossary Off
Versions: 1 2 3 4 5 6 7 8 9 10 11 12 13 14 15 16 17 18 19 20 21 22 23 24 25 26 27 28 29 30 31 32 33 34 35 36 37 38 39 40 41 42 43 44 45 46 47 48 49 50

000
ASUS43 KDMX 261301
RWRIA

WEATHER ROUNDUP FOR IOWA
NATIONAL WEATHER SERVICE DES MOINES IA
800 AM CDT TUE SEP 26 2017

NOTE: "FAIR" INDICATES FEW OR NO CLOUDS BELOW 12,000 FEET WITH NO
SIGNIFICANT WEATHER AND/OR OBSTRUCTIONS TO VISIBILITY.

* - THESE STATIONS ARE NOT NWS STATIONS...THUS NOT UNDER NWS
QUALITY CONTROL.  THEY ALSO DO NOT REPORT WEATHER SUCH
AS PRECIPITATION OR FOG.

IAZ001>003-012>014-020>022-031>034-043>046-261400-
   NORTHWEST IOWA

CITY           SKY/WX    TMP DP  RH WIND       PRES   REMARKS
CARROLL *      CLOUDY    59  59 100 NW6G12    30.01R
CHEROKEE *     CLOUDY    53  53 100 NW8       30.04R FOG
DENISON *      CLOUDY    54  54 100 NW8       30.05R
LE MARS *      CLOUDY    52  50  93 NW12      30.07R
ORANGE CITY *  CLOUDY    52  52 100 NW9       30.06R FOG
SHELDON *      FOG       52  50  93 NW8       30.03R VSB 3/4
SIOUX CITY     CLOUDY    52  51  97 NW15      30.07R
SPENCER        CLOUDY    54  52  93 NW9       30.02R
STORM LAKE *   CLOUDY    54  52  94 NW10      30.03R
$$

IAZ055>058-069>071-079>083-090>094-261400-
   SOUTHWEST IOWA

CITY           SKY/WX    TMP DP  RH WIND       PRES   REMARKS
ATLANTIC *     CLOUDY    57  57 100 NW10      30.03R FOG
AUDUBON *      CLOUDY    55  54  94 NW6       30.03R
CLARINDA *     CLOUDY    59  59 100 NW9       30.06R
COUNCIL BLFS * FOG       54  54 100 NW12G17   30.06R VSB 3/4
CRESTON *      CLOUDY    61  61 100 W9        30.02R
HARLAN  *      CLOUDY    55  55 100 NW9       30.07R
LAMONI         CLOUDY    66  66 100 SW3       29.99S
RED OAK *      CLOUDY    57  55  94 NW8G15    30.05R
SHENANDOAH *   CLOUDY    57  55  94 NW7G13    30.06R
$$

IAZ047>049-059>061-072>074-084-261400-
   CENTRAL IOWA

CITY           SKY/WX    TMP DP  RH WIND       PRES   REMARKS
AMES           LGT RAIN  64  64 100 NW13      29.97R FOG
ANKENY *       CLOUDY    66  66 100 W5        29.97R
BOONE *        CLOUDY    61  59  94 NW7       29.97R
CHARITON *     CLOUDY    66  66 100 SW5       29.99R
DES MOINES     DRIZZLE   67  66  97 W3        29.96R
GRINNELL*      CLOUDY    65  64  96 W5        29.97R FOG
KNOXVILLE *    LGT RAIN  66  64  94 SW5       29.97R
MARSHALLTOWN   LGT RAIN  65  65 100 W5        29.95S FOG
NEWTON *       CLOUDY    66  64  94 W3        29.96S FOG
PELLA *        RAIN      66  65  97 SW3       29.99R
PERRY *        CLOUDY    61  60  98 NW7       29.99R FOG
$$

IAZ004>006-015-016-023>025-035-036-261400-
   NORTH CENTRAL IOWA

CITY           SKY/WX    TMP DP  RH WIND       PRES   REMARKS
ALGONA *       CLOUDY    55  55 100 NW7       29.99R
CLARION *      CLOUDY    59  59 100 NW7       29.97S
ESTHERVILLE    CLOUDY    53  53 100 NW7       30.00R
FORT DODGE *   CLOUDY    58  57  97 NW6       29.99R FOG
MASON CITY     CLOUDY    60  58  92 NW10      29.97R
FOREST CITY *  CLOUDY    57  57 100 NW7       29.97S
WEBSTER CITY * CLOUDY    59  59 100 NW5       29.96R
IOWA FALLS *   DRIZZLE   65  64  98 W6        29.97S
$$

IAZ007>011-017>019-026>030-037>042-050>054-066-261400-
   NORTHEAST IOWA

CITY           SKY/WX    TMP DP  RH WIND       PRES   REMARKS
CEDAR RAPIDS   CLOUDY    67  66  97 CALM      29.93R FOG
CHARLES CITY * CLOUDY    64  64 100 SW7       29.96R FOG
CLINTON *      CLOUDY   N/A N/A N/A SE5       29.95R
DECORAH *      CLOUDY    64  64 100 CALM      29.93R FOG
DUBUQUE        CLOUDY    67  64  90 CALM      29.95S
MONTICELLO *   CLOUDY    66  66 100 CALM      29.93S
OELWEIN *      CLOUDY    64  64 100 S5        29.96R FOG
WATERLOO       LGT RAIN  64  64 100 W3        29.94R
$$

IAZ064-065-067-068-078-261400-
   EAST CENTRAL IOWA

CITY           SKY/WX    TMP DP  RH WIND       PRES   REMARKS
DAVENPORT      CLOUDY    69  66  90 S3        29.96R FOG
IOWA CITY      CLOUDY    70  66  87 NE5       29.94
MUSCATINE *    CLOUDY    68  66  94 NE3       29.93F
QUAD CITIES    CLOUDY    70  66  87 E3        29.93R
$$

IAZ062-063-075>077-085>089-095>099-261400-
   SOUTHEAST IOWA

CITY           SKY/WX    TMP DP  RH WIND       PRES   REMARKS
BURLINGTON     CLOUDY    71  67  87 S6        29.93S
FAIRFIELD *    CLOUDY    66  64  94 W6        29.95R
FORT MADISON * CLOUDY    70  66  88 S5        29.94S
KEOKUK *       CLOUDY    72  66  83 CALM      29.93S
OSKALOOSA *    PTSUNNY   65  64  98 MISG      29.96R FOG
OTTUMWA        PTSUNNY   67  66  97 CALM      29.95R
WASHINGTON *   CLOUDY    68  66  94 E3        29.94S
$$

ABBREVIATIONS USED IN REMARKS
   TC - TEMPERATURES IN CELSIUS
  WCI - WIND CHILL INDEX
   HX - HEAT INDEX
  VSB - VISIBILITY
$$




USA.gov is the U.S. government's official web portal to all federal, state and local government web resources and services.